Temperature
19 19 19 19 19 19 19 19 19 19 19 19 19 19 19 19 19 19 18 18 18 18 18 18 18 17 17 17 17 17 17 17 17 17 17 16 16 16 16 16 16 16 16
19 19 19 19 19 19 19 19 19 19 19 19 19 19 19 19 19 19 18 18 18 18 18 18 18 18 17 17 17 17 17 17 17 17 17 16 16 16 16 16 16 16 16
19 19 19 19 19 19 19 19 19 19 19 19 19 19 19 19 19 19 18 18 18 18 18 18 18 18 18 17 17 17 17 17 17 17 16 16 16 16 16 16 16 16 16
19 19 19 19 19 19 19 19 19 19 19 19 19 19 19 19 19 19 18 18 18 18 18 18 18 18 17 17 17 17 17 17 17 17 16 16 16 16 16 16 16 16 16
19 19 19 19 19 19 19 19 19 19 19 19 19 19 19 19 19 19 19 18 18 18 18 18 18 18 17 17 17 17 17 17 17 17 16 16 16 16 16 16 16 16 16
19 19 19 19 19 19 19 19 19 19 19 19 20 20 20 20 19 19 19 19 18 18 18 18 18 18 17 17 17 17 17 17 17 17 16 16 16 16 16 16 16 16 16
19 19 19 19 19 19 19 19 19 19 19 20 20 20 20 20 20 19 19 19 19 18 18 18 18 18 17 17 17 17 17 17 17 17 16 16 16 16 16 16 16 16 16
19 19 19 19 19 19 19 19 19 19 19 20 20 20 20 20 20 20 20 19 19 19 19 18 18 18 18 17 17 17 17 17 17 17 17 16 16 16 16 16 16 16 16
19 19 19 19 19 19 19 19 19 19 19 20 20 20 20 20 20 20 20 20 19 19 19 19 18 18 18 18 17 17 17 17 17 17 17 17 16 16 16 16 16 16 16
19 19 19 19 19 19 19 19 19 19 19 19 20 20 20 20 20 20 20 20 19 19 19 19 18 18 18 18 18 18 17 17 17 17 17 17 16 16 16 16 16 16 16
19 19 19 19 19 19 19 19 19 19 19 19 19 19 20 20 20 20 19 20 20 19 19 19 19 18 18 18 18 18 18 17 17 17 17 17 17 16 16 16 16 16 16
19 19 19 19 19 18 18 19 19 19 19 19 19 19 19 19 19 20 20 20 20 20 19 19 19 19 18 18 18 18 18 17 17 17 17 17 17 16 16 16 16 16 16
19 19 19 19 19 19 19 19 18 19 19 19 19 19 19 19 19 19 19 19 19 19 19 19 19 19 18 18 18 18 18 17 17 17 17 17 16 16 16 16 16 16 16
19 19 19 19 19 19 19 18 18 18 18 18 19 19 19 19 19 19 19 19 19 19 19 19 19 19 19 18 18 18 18 17 17 17 17 17 16 16 16 16 16 16 16
19 19 19 19 19 19 19 18 18 18 18 18 18 18 18 18 19 19 19 19 19 18 19 19 19 18 18 18 18 18 17 17 17 17 17 17 16 16 16 16 16 16 16
19 19 19 19 19 19 19 18 18 18 18 18 18 18 18 18 18 18 18 18 18 18 18 19 18 18 18 18 18 18 17 17 17 17 17 17 16 16 16 16 16 16 16
19 19 19 19 19 19 19 18 18 18 18 18 18 18 18 18 18 18 18 18 18 18 18 18 18 18 18 18 18 17 17 17 17 17 17 17 16 16 16 16 16 16 16
19 19 19 19 19 18 18 18 18 18 18 18 18 18 18 18 18 18 18 18 18 18 18 18 18 18 18 18 17 17 17 17 17 17 17 17 16 16 16 16 16 15 15
19 19 19 19 18 18 18 18 18 18 18 18 18 17 17 17 17 17 18 17 17 17 17 17 17 17 17 17 17 17 17 16 16 16 16 16 16 16 16 16 16 15 15
19 19 18 18 18 18 18 18 18 18 18 18 17 17 17 17 17 17 17 17 17 17 17 17 17 17 17 17 17 17 16 16 16 16 16 16 16 16 16 16 15 15 15
18 18 18 18 18 18 18 18 18 17 17 17 17 17 17 17 17 17 17 17 17 17 17 16 16 17 16 16 16 16 16 16 16 16 16 16 16 16 16 15 15 15 15
18 18 18 18 18 18 18 18 18 17 17 17 17 17 17 17 17 17 17 16 16 16 16 16 16 16 16 16 16 16 16 15 15 16 15 15 15 15 15 15 15 15 15
18 18 18 18 18 18 18 18 18 17 17 17 17 17 16 16 16 16 16 16 16 16 16 16 16 16 15 16 15 15 15 15 15 15 15 15 15 15 15 15 15 15 15
18 18 18 18 18 18 18 18 18 17 17 17 16 16 16 16 16 16 16 16 16 16 16 15 15 15 15 15 15 15 15 15 15 15 15 15 15 15 15 15 15 15 15
18 18 18 18 18 18 18 17 17 17 17 17 16 16 16 16 16 16 16 15 15 15 15 15 15 15 15 15 15 15 15 14 14 15 15 14 15 14 14 14 15 15 14
18 18 17 17 17 17 17 17 17 16 16 16 16 16 16 16 15 15 15 15 15 15 15 15 15 15 15 15 15 15 15 14 14 14 14 14 14 14 14 14 14 14 14
Wind_Speed
2 2 1 1 2 3 3 1 0 1 1 0 1 2 2 5 5 7 8 10 10 10 9 8 8 7 7 7 6 6 6 6 6 6 6 6 6 7 8 7 6 7 6
2 2 1 1 1 1 1 1 1 1 1 0 2 2 2 3 4 6 8 9 9 9 9 7 7 7 7 6 6 6 6 6 6 6 6 6 6 6 7 7 6 6 7
2 1 1 1 1 2 1 1 0 1 1 1 1 2 1 2 3 4 6 7 8 8 8 8 7 6 7 7 6 6 6 6 6 6 6 6 6 6 6 7 6 6 7
2 1 1 1 1 1 1 0 1 1 0 0 1 1 2 2 2 3 5 6 7 7 9 9 8 7 7 7 7 6 6 6 6 6 5 5 6 6 6 6 6 6 7
2 1 1 1 1 1 1 1 1 1 0 1 1 2 2 3 3 3 4 5 7 8 8 9 9 8 7 8 7 7 6 6 6 6 6 5 5 6 6 6 6 6 6
2 0 1 1 1 0 1 1 1 2 1 2 2 1 2 3 4 3 3 4 5 7 9 9 9 8 8 9 8 7 7 7 7 7 6 6 6 6 5 6 6 5 6
1 1 1 1 0 0 0 1 1 2 2 1 1 1 1 2 3 3 3 3 3 4 7 9 8 8 8 9 9 8 7 7 7 7 6 6 6 6 6 6 6 6 6
0 1 1 1 0 0 0 1 2 2 3 1 1 1 1 1 1 3 3 3 3 3 5 8 8 8 8 8 9 9 8 7 7 7 6 6 6 6 6 6 6 6 6
1 0 1 1 1 0 0 1 1 2 3 2 1 1 1 1 1 0 2 2 3 3 3 4 7 8 9 9 8 9 9 8 8 7 6 6 6 6 6 6 6 6 6
1 1 1 0 1 1 0 1 1 2 2 2 2 1 1 0 0 1 0 1 3 3 3 3 4 6 8 8 8 9 10 9 8 7 7 7 7 7 7 7 7 7 7
2 1 1 1 1 0 0 1 1 1 2 3 3 2 2 0 1 1 1 1 1 2 4 3 3 5 7 7 8 9 11 10 9 8 7 7 7 7 7 7 7 7 8
3 2 3 2 2 1 1 1 1 1 1 3 3 3 2 1 1 1 1 2 1 2 2 3 3 4 6 6 7 11 12 12 11 10 9 8 7 7 7 7 8 7 7
2 3 3 2 2 2 2 1 2 2 2 2 3 3 3 3 2 1 1 2 1 1 1 2 3 3 5 7 8 12 12 12 11 11 9 8 8 7 7 7 7 7 8
2 3 3 3 2 2 2 1 2 2 2 3 4 3 4 3 3 2 1 1 2 2 2 2 2 3 4 6 8 11 10 13 12 12 11 9 8 8 7 7 7 7 8
3 3 4 4 3 3 2 2 2 2 2 3 3 3 3 3 3 3 2 1 2 2 3 2 1 2 3 5 9 9 8 12 13 13 12 11 10 9 9 8 7 7 8
1 2 3 3 3 3 2 2 2 3 3 3 3 3 3 3 3 3 2 2 2 2 3 2 2 1 1 2 7 7 7 10 13 13 13 12 11 11 11 10 9 8 8
3 3 2 3 3 3 3 3 4 3 3 3 4 3 3 3 3 3 3 2 2 2 3 3 2 1 1 1 2 4 6 7 8 14 15 14 13 12 12 11 10 9 9
4 4 3 3 4 4 3 4 4 3 3 4 3 3 3 3 2 3 3 3 3 3 3 4 3 2 3 3 4 5 5 7 6 12 16 15 14 13 13 12 12 11 10
4 3 4 4 4 3 3 4 4 4 4 4 3 4 4 3 3 3 3 3 3 4 2 3 3 2 2 2 2 3 4 3 6 8 14 16 15 15 14 14 13 12 11
4 4 4 4 4 3 3 4 4 4 4 4 4 4 4 3 3 4 4 3 3 3 3 3 3 3 2 2 2 3 3 3 4 5 6 9 12 15 15 15 13 12 11
5 4 4 4 3 4 4 4 4 5 4 5 5 5 4 3 3 3 3 2 3 3 3 3 3 2 2 2 2 2 3 3 4 3 2 4 5 7 9 12 14 13 13
4 4 4 4 4 4 3 3 3 4 4 5 5 4 4 3 3 3 3 2 3 3 4 4 4 3 3 3 3 3 3 3 3 2 2 4 4 5 5 7 12 15 15
4 4 4 4 4 3 2 2 3 4 5 5 5 4 5 4 2 2 2 3 4 5 5 4 4 4 4 4 3 3 3 4 5 4 3 4 3 4 4 7 12 14 15
3 4 4 4 4 4 4 3 4 5 5 4 4 4 3 3 2 2 2 3 3 3 5 4 4 4 4 3 3 4 5 5 5 4 3 4 3 4 4 3 9 14 15
3 4 4 4 4 3 4 4 4 4 4 4 4 3 2 2 1 1 1 2 3 4 5 4 4 4 5 5 3 3 4 4 5 4 3 3 3 3 3 3 6 11 12
3 4 4 4 5 4 6 6 6 4 4 3 3 2 2 2 1 2 2 3 4 5 4 4 4 5 6 6 6 4 4 4 4 3 2 2 2 2 2 2 2 5 7
Wind_Direction
123 108 87 123 175 169 174 204 199 314 325 337 1 78 87 97 109 112 129 145 144 146 149 153 162 169 172 178 178 181 184 181 179 182 188 190 192 193 192 190 192 187 183
94 106 143 217 226 190 182 169 159 226 261 47 36 53 60 96 109 119 137 152 152 152 154 158 165 171 173 175 179 181 182 177 179 185 188 189 191 192 190 193 190 189 185
125 115 150 205 209 222 208 177 217 254 200 156 166 160 122 100 116 132 141 154 161 164 163 165 169 171 173 173 175 177 174 175 178 182 186 188 190 187 185 187 187 185 186
156 156 166 127 140 222 269 219 210 247 67 106 205 179 151 139 137 154 158 163 171 168 171 174 172 170 170 169 167 170 172 176 179 180 186 190 192 190 187 187 191 191 192
145 135 103 120 221 230 314 310 27 324 299 255 215 189 168 172 174 175 170 169 171 166 161 171 173 175 176 173 172 173 176 178 180 183 188 192 192 189 190 192 195 196 198
112 74 169 147 277 80 26 354 335 291 258 264 272 202 193 188 181 180 190 161 163 169 158 155 167 179 182 177 173 176 182 184 187 189 191 195 196 196 196 192 193 198 202
111 96 11 145 179 106 66 318 299 285 268 242 262 261 226 207 178 172 179 166 153 158 151 157 168 166 170 180 181 180 187 192 192 189 190 195 197 195 196 194 196 200 202
118 152 112 287 141 148 98 305 298 296 301 291 261 285 277 226 236 184 166 171 167 164 159 163 164 163 169 164 178 185 189 193 195 195 193 190 191 192 197 201 203 207 210
142 38 102 303 323 221 186 242 296 298 294 302 311 288 311 327 315 260 175 144 153 161 165 159 163 165 170 159 165 179 188 192 193 195 196 193 191 195 202 208 210 208 211
178 169 155 213 313 349 1 278 99 298 300 304 307 294 260 146 167 315 278 186 187 178 177 182 159 156 154 155 158 163 174 183 189 194 199 203 203 204 206 212 217 216 220
171 170 174 201 238 319 336 322 360 322 322 317 312 312 310 271 246 209 267 254 227 196 182 177 169 159 156 159 160 170 177 183 186 189 197 203 208 211 213 214 220 224 225
168 183 184 199 205 213 245 251 274 279 297 313 320 321 317 335 312 278 261 254 236 223 185 167 172 156 155 157 166 168 175 182 187 191 196 202 207 214 217 220 223 226 226
170 184 186 179 190 209 232 241 230 251 260 285 294 301 309 301 298 296 291 285 282 276 217 194 175 165 167 153 158 168 177 183 188 191 197 203 209 214 218 224 228 229 230
182 169 169 181 195 221 239 233 246 246 242 268 275 285 289 294 307 296 275 287 291 277 257 227 171 174 152 150 165 172 176 187 190 193 199 203 210 216 219 223 227 230 231
207 171 174 184 192 205 234 246 240 268 261 263 276 280 285 291 297 306 300 286 267 279 268 250 223 170 154 145 166 176 174 188 193 198 203 207 213 218 219 222 225 229 228
244 192 189 190 198 212 225 246 240 251 256 253 255 270 284 296 306 296 284 284 268 256 271 262 260 200 177 183 175 180 180 188 196 201 206 210 214 218 218 220 223 226 227
215 219 213 212 215 219 221 238 245 243 253 260 265 258 262 275 298 303 301 291 289 270 258 271 255 216 194 215 177 193 188 191 201 205 206 208 213 217 216 218 223 226 228
212 213 214 221 230 224 227 235 252 250 251 258 264 275 273 269 281 293 296 293 284 269 261 267 265 242 239 225 209 215 216 215 209 210 205 207 212 215 217 217 221 223 225
210 214 215 224 234 235 233 237 240 248 255 259 262 263 265 271 274 277 284 290 287 284 263 264 265 253 249 246 230 237 243 232 239 218 203 208 211 214 217 218 220 221 222
209 213 223 224 228 233 246 253 250 247 254 259 263 259 258 250 259 274 274 282 291 292 280 273 270 266 264 252 226 241 256 247 253 244 210 205 211 217 221 221 220 217 219
218 211 222 233 232 227 240 248 257 254 252 257 260 259 257 252 264 270 280 303 303 297 295 289 279 284 287 283 267 259 263 262 253 243 225 221 207 213 218 221 219 218 217
220 218 219 225 232 243 231 227 251 270 267 265 269 270 263 240 242 243 271 272 271 280 292 295 293 289 292 300 294 281 279 277 272 250 226 244 218 222 213 208 207 211 214
217 222 219 218 213 221 234 240 258 266 267 264 263 265 277 274 214 241 253 255 264 263 255 269 282 282 283 290 300 292 275 271 270 277 259 257 241 234 225 216 202 205 210
217 225 228 222 212 217 209 216 247 250 259 263 259 249 248 275 268 261 262 273 267 266 254 247 255 266 273 284 272 263 265 263 257 264 248 255 259 250 251 216 208 207 209
226 230 231 228 220 215 211 205 218 246 249 250 246 249 234 235 265 279 257 284 296 285 268 253 249 258 263 273 273 279 273 266 270 265 249 249 257 268 253 236 222 213 213
228 235 236 230 224 213 204 204 206 250 265 263 243 228 209 205 230 234 243 261 269 278 285 285 272 262 256 255 243 233 255 268 275 276 258 256 272 282 274 243 212 206 215
Height
1537 1538 1538 1538 1539 1539 1540 1540 1540 1540 1540 1540 1540 1540 1540 1539 1538 1537 1536 1535 1535 1534 1535 1535 1536 1536 1537 1538 1539 1539 1540 1541 1542 1542 1543 1544 1545 1546 1547 1548 1549 1551 1552
1538 1538 1538 1539 1539 1540 1540 1540 1540 1540 1540 1540 1540 1540 1539 1539 1539 1538 1537 1536 1536 1536 1536 1536 1536 1536 1537 1538 1538 1539 1540 1540 1541 1542 1543 1543 1544 1545 1546 1547 1548 1549 1550
1538 1538 1539 1539 1539 1540 1540 1541 1541 1540 1540 1540 1540 1540 1540 1539 1539 1539 1538 1537 1537 1536 1536 1536 1536 1536 1537 1537 1538 1539 1540 1540 1541 1541 1542 1543 1544 1544 1545 1546 1547 1548 1549
1538 1538 1539 1539 1539 1540 1540 1540 1540 1540 1540 1540 1540 1540 1539 1539 1539 1539 1539 1538 1537 1537 1536 1536 1536 1537 1537 1537 1538 1538 1539 1540 1540 1541 1542 1542 1543 1543 1544 1545 1546 1547 1548
1538 1538 1538 1539 1539 1540 1540 1540 1540 1540 1540 1540 1540 1540 1539 1539 1539 1539 1539 1538 1538 1537 1537 1537 1537 1537 1537 1537 1538 1538 1539 1539 1540 1540 1541 1541 1542 1542 1543 1544 1545 1545 1546
1537 1537 1538 1538 1539 1539 1539 1539 1539 1539 1540 1539 1540 1539 1539 1539 1538 1538 1538 1538 1538 1537 1537 1537 1537 1537 1537 1537 1538 1538 1538 1538 1539 1539 1540 1540 1541 1541 1542 1542 1543 1544 1544
1537 1537 1537 1538 1538 1538 1538 1538 1538 1538 1539 1539 1539 1539 1538 1538 1538 1538 1538 1538 1538 1537 1537 1536 1536 1537 1537 1537 1537 1538 1538 1538 1538 1539 1539 1539 1540 1540 1541 1541 1542 1542 1543
1536 1537 1536 1537 1537 1537 1537 1537 1538 1538 1538 1539 1539 1538 1538 1539 1538 1538 1537 1537 1537 1537 1537 1537 1537 1536 1536 1536 1537 1537 1537 1537 1537 1538 1538 1538 1538 1539 1539 1540 1540 1540 1540
1535 1535 1535 1536 1536 1537 1537 1537 1537 1537 1538 1538 1538 1538 1538 1538 1538 1538 1537 1537 1537 1537 1537 1537 1536 1536 1536 1536 1536 1536 1536 1536 1537 1537 1537 1537 1537 1537 1537 1538 1538 1538 1538
1534 1534 1534 1535 1535 1536 1536 1536 1536 1537 1537 1537 1537 1537 1538 1537 1537 1537 1537 1536 1536 1536 1536 1536 1536 1536 1535 1535 1535 1535 1535 1535 1535 1535 1535 1535 1535 1535 1536 1536 1536 1536 1536
1533 1533 1534 1534 1534 1535 1535 1535 1536 1536 1536 1536 1536 1536 1536 1536 1536 1536 1536 1536 1536 1535 1535 1535 1535 1535 1534 1534 1534 1534 1534 1534 1534 1534 1534 1533 1533 1533 1534 1534 1534 1534 1534
1532 1532 1533 1533 1533 1534 1534 1534 1535 1535 1535 1535 1535 1535 1535 1535 1535 1535 1534 1534 1534 1535 1534 1534 1534 1534 1533 1533 1533 1532 1532 1532 1532 1532 1532 1531 1531 1531 1531 1531 1531 1531 1531
1531 1531 1532 1532 1532 1533 1533 1533 1534 1534 1534 1534 1534 1534 1534 1534 1534 1534 1533 1533 1532 1533 1533 1532 1532 1532 1532 1531 1531 1531 1530 1530 1530 1530 1529 1529 1529 1529 1529 1529 1529 1529 1529
1530 1530 1530 1531 1531 1531 1532 1532 1532 1532 1533 1533 1533 1532 1532 1532 1532 1532 1532 1532 1531 1530 1530 1531 1530 1530 1530 1529 1529 1528 1528 1528 1527 1527 1527 1527 1526 1526 1526 1526 1525 1525 1525
1528 1529 1529 1529 1530 1530 1530 1531 1531 1531 1531 1531 1531 1531 1531 1531 1531 1530 1530 1530 1530 1529 1528 1528 1528 1528 1527 1527 1526 1526 1525 1525 1525 1524 1524 1524 1523 1523 1523 1523 1522 1522 1522
1527 1527 1527 1527 1528 1528 1529 1529 1529 1529 1529 1529 1529 1529 1529 1529 1528 1528 1528 1528 1528 1527 1526 1526 1526 1526 1525 1525 1524 1523 1523 1522 1522 1521 1521 1520 1520 1520 1520 1519 1519 1519 1519
1524 1525 1525 1526 1526 1527 1527 1527 1527 1527 1527 1527 1527 1527 1527 1526 1526 1526 1526 1525 1525 1524 1523 1523 1523 1523 1522 1522 1521 1520 1520 1519 1518 1518 1517 1517 1517 1517 1516 1516 1516 1516 1515
1522 1522 1523 1523 1524 1524 1525 1525 1525 1525 1525 1525 1525 1525 1524 1524 1524 1523 1523 1522 1522 1522 1521 1520 1519 1519 1519 1518 1518 1517 1516 1516 1515 1514 1514 1514 1513 1513 1513 1512 1512 1512 1512
1519 1520 1520 1521 1521 1521 1522 1522 1522 1522 1522 1522 1522 1522 1522 1521 1521 1520 1519 1519 1518 1518 1518 1517 1516 1516 1516 1515 1515 1514 1514 1513 1512 1511 1511 1510 1510 1510 1509 1509 1509 1508 1508
1517 1517 1517 1518 1518 1519 1519 1519 1519 1519 1519 1519 1519 1519 1519 1518 1517 1517 1516 1516 1515 1515 1514 1514 1513 1513 1513 1512 1511 1511 1510 1509 1509 1509 1508 1507 1506 1506 1506 1505 1505 1505 1504
1514 1514 1515 1515 1516 1516 1516 1516 1516 1516 1516 1516 1516 1515 1515 1515 1514 1514 1513 1512 1512 1511 1511 1510 1510 1509 1509 1508 1508 1507 1506 1505 1505 1505 1504 1503 1503 1502 1502 1501 1501 1501 1501
1511 1511 1511 1512 1513 1513 1513 1513 1513 1513 1513 1513 1512 1512 1512 1511 1510 1510 1509 1509 1509 1508 1507 1507 1506 1506 1505 1505 1504 1504 1503 1502 1501 1502 1501 1499 1499 1498 1498 1498 1498 1498 1498
1507 1508 1508 1509 1509 1509 1510 1510 1510 1510 1509 1509 1509 1508 1508 1508 1507 1506 1505 1505 1505 1504 1504 1504 1503 1502 1501 1501 1500 1499 1499 1498 1497 1497 1497 1495 1495 1494 1494 1494 1494 1494 1494
1504 1505 1505 1506 1506 1506 1506 1506 1506 1506 1505 1505 1505 1505 1505 1504 1503 1502 1502 1501 1501 1500 1500 1500 1499 1499 1498 1497 1497 1496 1495 1494 1493 1493 1493 1492 1491 1491 1490 1490 1490 1490 1490
1502 1502 1503 1503 1503 1503 1503 1502 1502 1502 1502 1501 1502 1502 1501 1500 1499 1499 1498 1497 1497 1496 1497 1496 1496 1495 1494 1494 1493 1492 1491 1491 1489 1489 1489 1489 1488 1487 1487 1486 1486 1486 1486
1499 1500 1500 1500 1500 1499 1499 1499 1500 1499 1499 1498 1498 1498 1498 1497 1496 1496 1495 1494 1494 1493 1493 1492 1491 1491 1490 1490 1489 1488 1487 1487 1486 1485 1485 1485 1484 1484 1482 1482 1482 1482 1481